Regional Weather Roundup
Issued by NWS

Home | Current Version | Previous Version | Graphics & Text | Print | Product List | Glossary On
Versions: 1 2 3 4 5 6 7 8 9 10 11 12 13 14 15 16 17 18 19 20 21 22 23 24 25 26 27 28 29 30 31 32 33 34 35 36 37 38 39 40 41 42 43 44 45 46 47 48 49 50
000
ASUS43 KOAX 251310
RWRNE

WEATHER ROUNDUP FOR NEBRASKA
NATIONAL WEATHER SERVICE OMAHA NE
800 AM CDT SUN JUN 25 2017

NOTES: SATELLITE DATA IS BEING USED TO AUGMENT CLOUD COVER ABOVE
       12000 FEET.
       "FAIR" INDICATES FEW OR NO CLOUDS BELOW 12,000 FEET WITH NO
       SIGNIFICANT WEATHER AND/OR OBSTRUCTIONS TO VISIBILITY.

  * THESE STATIONS DO NOT REPORT WEATHER SUCH AS RAIN...SNOW OR FOG.

NEZ001>004-019>022-054>056-251400-
NEBRASKA PANHANDLE

CITY           SKY/WX    TMP DP  RH WIND       PRES   REMARKS
SCOTTSBLUFF    CLOUDY    57  39  51 S6        30.37F
ALLIANCE       CLOUDY    53  42  66 E3        30.36S
CHADRON        CLOUDY    57  38  48 S3        30.35S
GORDON         FAIR      55  41  60 CALM      30.37S
KIMBALL        SUNNY     52  37  56 E10       30.38S
SIDNEY         PTSUNNY   54  35  48 E10       30.38F
$$

NEZ057>060-069>072-079>082-251400-
SOUTHWEST NEBRASKA

CITY           SKY/WX    TMP DP  RH WIND       PRES   REMARKS
NORTH PLATTE   CLOUDY    57  44  62 E3        30.37S
IMPERIAL       CLOUDY    56  36  47 E10       30.37R
LEXINGTON      CLOUDY    57  45  64 CALM      30.38R
MCCOOK         CLOUDY    55  44  66 NE10      30.37R
OGALLALA       CLOUDY    57  36  45 E10       30.38R
$$

NEZ005>010-023>029-035>040-094-251400-
NORTH CENTRAL NEBRASKA

CITY           SKY/WX    TMP DP  RH WIND       PRES   REMARKS
VALENTINE      PTSUNNY   53  36  52 CALM      30.37S
AINSWORTH      SUNNY     54  42  62 W3        30.37S
BROKEN BOW     CLOUDY    56  43  61 N3        30.36F
O`NEILL        SUNNY     53  45  72 W8        30.36R
ORD            MOSUNNY   54  41  61 NW5       30.35S
THEDFORD       PTSUNNY   56  38  52 CALM      30.38F
$$

NEZ041-046>049-061>064-073>077-083>087-251400-
SOUTH CENTRAL NEBRASKA

CITY           SKY/WX    TMP DP  RH WIND       PRES   REMARKS
GRAND ISLAND   CLOUDY    56  43  61 CALM      30.37R
AURORA         MOSUNNY   56  46  67 CALM      30.36R
HASTINGS       CLOUDY    56  44  64 NE5       30.37R
HEBRON         CLOUDY    57  48  72 NW5       30.35R
HOLDREGE       LGT RAIN  55  44  68 NE9       30.37R
KEARNEY *      CLOUDY    54  43  66 CALM      30.38R
YORK           CLOUDY    55  45  67 CALM      30.35R
$$

NEZ011>018-030>034-042>045-251400-
NORTHEAST NEBRASKA

CITY           SKY/WX    TMP DP  RH WIND       PRES   REMARKS
NORFOLK        SUNNY     53  44  71 NW3       30.32S
ALBION         SUNNY     55  44  66 N3        30.35R
BLAIR          SUNNY     60  44  55 NW9       30.31R
FREMONT        SUNNY     60  44  54 NW8       30.32R
TEKAMAH        SUNNY     58  44  60 N10       30.31R
WAYNE          SUNNY     56  46  68 NW7       30.32S
$$

NEZ050>053-065>068-078-088>093-251400-
SOUTHEAST NEBRASKA

CITY           SKY/WX    TMP DP  RH WIND       PRES   REMARKS
LINCOLN        MOSUNNY   60  44  55 CALM      30.34R
OMAHA EPPLEY   MOSUNNY   60  46  59 N3        30.30R
BEATRICE       PTSUNNY   57  51  80 W3        30.34R
FALLS CITY     SUNNY     59  49  69 NW6       30.30R
NEBRASKA CITY  MOSUNNY   59  47  64 W3        30.32R
PLATTSMOUTH    SUNNY     58  46  64 NW6       30.31R
$$

NEZ044-045-051>053-067-251400-
OMAHA AREA

CITY           SKY/WX    TMP DP  RH WIND       PRES   REMARKS
OMAHA EPPLEY   MOSUNNY   60  46  59 N3        30.30R
BLAIR          SUNNY     60  44  55 NW9       30.31R
FREMONT        SUNNY     60  44  54 NW8       30.32R
MILLARD        MOSUNNY   63  46  55 NW6       30.31R
OFFUTT AFB     MOSUNNY   60  46  59 NW6       30.30R
PLATTSMOUTH    SUNNY     58  46  64 NW6       30.31R
WAHOO          FAIR      59  43  56 NW6       30.32R
$$




USA.gov is the U.S. government's official web portal to all federal, state and local government web resources and services.